• en France
  • Liste des pays
  • À 7 jours
  • Température de l'eau
  • Carte satellitaire
  • Carte météo
  • Widgets météo
  • user-avatar
    Se connecter

    Météo par heure à Lubango

    Ce jour, 15 Novembre, Jeudi

    Heure Température Précipitation Vent Pression Humidité
    00:00 +18°C° 0 mm 1 m/s 609 mmHg 70%
    01:00 +16°C° 0 mm 1 m/s 609 mmHg 77%
    02:00 +15°C° 0 mm 1 m/s 608 mmHg 79%
    03:00 +15°C° 0 mm 1 m/s 608 mmHg 82%
    04:00 +15°C° 0 mm 1 m/s 608 mmHg 84%
    05:00 +16°C° 0 mm 1 m/s 609 mmHg 78%
    06:00 +18°C° 0 mm 1 m/s 609 mmHg 73%
    07:00 +18°C° 0 mm 1 m/s 610 mmHg 67%
    08:00 +21°C° 0 mm 1 m/s 611 mmHg 55%
    09:00 +24°C° 0 mm 1 m/s 612 mmHg 44%
    10:00 +27°C° 0 mm 1 m/s 613 mmHg 32%
    11:00 +28°C° 0 mm 2 m/s 613 mmHg 28%
    12:00 +30°C° 0 mm 3 m/s 613 mmHg 24%
    13:00 +31°C° 0 mm 3 m/s 612 mmHg 20%
    14:00 +30°C° 0 mm 4 m/s 612 mmHg 22%
    15:00 +30°C° 0 mm 4 m/s 611 mmHg 25%
    16:00 +29°C° 0 mm 5 m/s 610 mmHg 28%
    17:00 +26°C° 0 mm 4 m/s 610 mmHg 39%
    18:00 +23°C° 0 mm 4 m/s 609 mmHg 49%
    19:00 +20°C° 0 mm 4 m/s 609 mmHg 60%
    20:00 +19°C° 0 mm 3 m/s 609 mmHg 66%
    21:00 +18°C° 0 mm 2 m/s 609 mmHg 71%
    22:00 +17°C° 0 mm 2 m/s 609 mmHg 77%
    23:00 +17°C° 0 mm 2 m/s 609 mmHg 78%

    Demain, 16 Novembre, Vendredi

    Heure Température Précipitation Vent Pression Humidité
    00:00 +16°C° 0 mm 1 m/s 609 mmHg 80%
    01:00 +16°C° 0 mm 1 m/s 609 mmHg 81%
    02:00 +16°C° 0 mm 1 m/s 608 mmHg 82%
    03:00 +15°C° 0 mm 1 m/s 608 mmHg 84%
    04:00 +15°C° 0 mm 1 m/s 608 mmHg 85%
    05:00 +16°C° 0 mm 1 m/s 608 mmHg 79%
    06:00 +18°C° 0 mm 1 m/s 609 mmHg 73%
    07:00 +19°C° 0 mm 1 m/s 610 mmHg 68%
    08:00 +22°C° 0 mm 1 m/s 611 mmHg 55%
    09:00 +25°C° 0 mm 2 m/s 612 mmHg 42%
    10:00 +28°C° 0 mm 2 m/s 613 mmHg 30%
    11:00 +29°C° 0 mm 2 m/s 613 mmHg 26%
    12:00 +30°C° 0 mm 3 m/s 613 mmHg 23%
    13:00 +33°C° 0 mm 3 m/s 613 mmHg 20%
    14:00 +31°C° 0 mm 3 m/s 612 mmHg 22%
    15:00 +30°C° 0 mm 3 m/s 611 mmHg 25%
    16:00 +29°C° 0 mm 3 m/s 610 mmHg 27%
    17:00 +27°C° 0 mm 3 m/s 610 mmHg 38%
    18:00 +24°C° 0 mm 3 m/s 609 mmHg 48%
    19:00 +20°C° 0 mm 3 m/s 609 mmHg 59%
    20:00 +19°C° 0 mm 2 m/s 609 mmHg 65%
    21:00 +18°C° 0 mm 2 m/s 609 mmHg 70%
    22:00 +18°C° 0 mm 1 m/s 609 mmHg 76%
    23:00 +18°C° 0 mm 1 m/s 609 mmHg 78%

    Après-demain, 17 Novembre, Samedi

    Heure Température Précipitation Vent Pression Humidité
    00:00 +16°C° 0 mm 1 m/s 609 mmHg 80%
    01:00 +16°C° 0 mm 1 m/s 608 mmHg 81%
    02:00 +15°C° 0 mm 1 m/s 608 mmHg 82%
    03:00 +15°C° 0 mm 1 m/s 608 mmHg 83%
    04:00 +14°C° 0 mm 1 m/s 607 mmHg 84%
    05:00 +16°C° 0 mm 1 m/s 608 mmHg 77%
    06:00 +18°C° 0 mm 1 m/s 609 mmHg 70%
    07:00 +19°C° 0 mm 1 m/s 610 mmHg 63%
    08:00 +22°C° 0 mm 1 m/s 611 mmHg 52%
    09:00 +25°C° 0 mm 1 m/s 612 mmHg 40%
    10:00 +28°C° 0 mm 2 m/s 613 mmHg 29%
    11:00 +29°C° 0 mm 2 m/s 613 mmHg 26%
    12:00 +30°C° 0 mm 3 m/s 613 mmHg 24%
    13:00 +31°C° 0 mm 3 m/s 613 mmHg 22%
    14:00 +30°C° 0 mm 3 m/s 612 mmHg 26%
    15:00 +29°C° 0 mm 4 m/s 611 mmHg 30%
    16:00 +28°C° 0 mm 4 m/s 610 mmHg 34%
    17:00 +25°C° 0 mm 4 m/s 609 mmHg 43%
    18:00 +22°C° 0 mm 3 m/s 609 mmHg 52%
    19:00 +20°C° 0 mm 3 m/s 609 mmHg 61%
    20:00 +19°C° 0 mm 2 m/s 609 mmHg 66%
    21:00 +18°C° 0 mm 2 m/s 610 mmHg 71%
    22:00 +17°C° 0 mm 2 m/s 610 mmHg 76%
    23:00 +16°C° 0 mm 1 m/s 610 mmHg 78%

    18 Novembre, Dimanche

    Heure Température Précipitation Vent Pression Humidité
    00:00 +16°C° 0 mm 1 m/s 609 mmHg 80%
    01:00 +15°C° 0 mm 1 m/s 609 mmHg 82%
    02:00 +15°C° 0 mm 1 m/s 609 mmHg 81%
    03:00 +15°C° 0 mm 1 m/s 608 mmHg 80%
    04:00 +15°C° 0 mm 1 m/s 608 mmHg 80%
    05:00 +16°C° 0 mm 1 m/s 609 mmHg 71%
    06:00 +18°C° 0 mm 1 m/s 610 mmHg 63%
    07:00 +19°C° 0 mm 1 m/s 611 mmHg 55%
    08:00 +22°C° 0 mm 1 m/s 612 mmHg 46%
    09:00 +25°C° 0 mm 1 m/s 613 mmHg 37%
    10:00 +28°C° 0 mm 2 m/s 614 mmHg 28%
    11:00 +29°C° 0 mm 2 m/s 613 mmHg 26%
    12:00 +30°C° 0 mm 3 m/s 613 mmHg 24%
    13:00 +31°C° 0 mm 3 m/s 612 mmHg 23%
    14:00 +29°C° 0.2 mm 4 m/s 611 mmHg 27%
    15:00 +27°C° 0.2 mm 4 m/s 610 mmHg 32%
    16:00 +26°C° 0.2 mm 4 m/s 609 mmHg 37%
    17:00 +23°C° 0 mm 4 m/s 610 mmHg 42%
    18:00 +21°C° 0 mm 3 m/s 610 mmHg 47%
    19:00 +20°C° 0 mm 2 m/s 610 mmHg 52%
    20:00 +19°C° 0.1 mm 2 m/s 610 mmHg 54%
    21:00 +19°C° 0.1 mm 2 m/s 610 mmHg 56%
    22:00 +20°C° 0.1 mm 1 m/s 610 mmHg 58%
    23:00 +19°C° 0.1 mm 1 m/s 610 mmHg 60%

    19 Novembre, Lundi

    Heure Température Précipitation Vent Pression Humidité
    00:00 +19°C° 0.1 mm 1 m/s 609 mmHg 63%
    01:00 +18°C° 0.1 mm 1 m/s 609 mmHg 65%
    02:00 +18°C° 0 mm 1 m/s 609 mmHg 67%
    03:00 +18°C° 0 mm 1 m/s 608 mmHg 69%
    04:00 +16°C° 0 mm 1 m/s 608 mmHg 70%
    05:00 +18°C° 0 mm 1 m/s 609 mmHg 66%
    06:00 +19°C° 0 mm 1 m/s 610 mmHg 62%
    07:00 +20°C° 0 mm 1 m/s 611 mmHg 57%
    08:00 +23°C° 0 mm 1 m/s 612 mmHg 48%
    09:00 +26°C° 0 mm 1 m/s 613 mmHg 39%
    10:00 +28°C° 0 mm 1 m/s 614 mmHg 29%
    11:00 +29°C° 0 mm 2 m/s 613 mmHg 28%
    12:00 +30°C° 0 mm 2 m/s 612 mmHg 27%
    13:00 +30°C° 0 mm 3 m/s 612 mmHg 26%
    14:00 +29°C° 0 mm 3 m/s 611 mmHg 29%
    15:00 +28°C° 0 mm 3 m/s 610 mmHg 31%
    16:00 +27°C° 0 mm 3 m/s 610 mmHg 34%
    17:00 +25°C° 0 mm 3 m/s 610 mmHg 39%
    18:00 +22°C° 0 mm 3 m/s 610 mmHg 43%
    19:00 +21°C° 0 mm 2 m/s 610 mmHg 48%
    20:00 +20°C° 0 mm 2 m/s 609 mmHg 51%
    21:00 +20°C° 0 mm 1 m/s 609 mmHg 55%
    22:00 +19°C° 0 mm 1 m/s 609 mmHg 59%
    23:00 +18°C° 0 mm 1 m/s 609 mmHg 60%

    20 Novembre, Mardi

    Heure Température Précipitation Vent Pression Humidité
    00:00 +18°C° 0 mm 1 m/s 608 mmHg 61%
    01:00 +18°C° 0 mm 1 m/s 608 mmHg 62%
    02:00 +16°C° 0 mm 1 m/s 608 mmHg 62%
    03:00 +15°C° 0 mm 0 m/s 608 mmHg 63%
    04:00 +15°C° 0 mm 0 m/s 607 mmHg 63%
    05:00 +16°C° 0 mm 0 m/s 608 mmHg 59%
    06:00 +17°C° 0 mm 0 m/s 609 mmHg 55%
    07:00 +18°C° 0 mm 0 m/s 610 mmHg 50%
    08:00 +23°C° 0 mm 1 m/s 611 mmHg 43%
    09:00 +25°C° 0 mm 1 m/s 612 mmHg 36%
    10:00 +27°C° 0 mm 2 m/s 612 mmHg 28%
    11:00 +28°C° 0 mm 2 m/s 612 mmHg 27%
    12:00 +29°C° 0 mm 2 m/s 612 mmHg 25%
    13:00 +30°C° 0 mm 2 m/s 611 mmHg 24%
    14:00 +29°C° 0 mm 3 m/s 611 mmHg 26%
    15:00 +28°C° 0 mm 3 m/s 610 mmHg 29%
    16:00 +27°C° 0 mm 3 m/s 610 mmHg 31%
    17:00 +25°C° 0 mm 3 m/s 610 mmHg 37%
    18:00 +22°C° 0 mm 3 m/s 609 mmHg 43%
    19:00 +21°C° 0 mm 2 m/s 609 mmHg 49%
    20:00 +20°C° 0 mm 2 m/s 609 mmHg 52%
    21:00 +19°C° 0 mm 2 m/s 609 mmHg 56%
    22:00 +19°C° 0 mm 1 m/s 609 mmHg 59%
    23:00 +19°C° 0 mm 1 m/s 609 mmHg 61%
    Voir plus